{"data":{"norad_id":47828,"intl_designator":"2021-018AT","name":"STARLINK-2415","alt_names":[],"object_type":"PAYLOAD","status":"ACTIVE","operator":null,"country":"US","launch_date":"2021-03-11","launch_site_code":"AFETR","launch_vehicle":null,"mission":null,"orbit_class":"UNKNOWN","rcs_meters":null,"size_class":null,"mass_kg":null,"dimensions":null,"purposes":["comms"],"wikipedia_slug":null,"has_3d_model":false,"image_url":null,"decayed_at":null,"tle_current":{"epoch":"2026-05-25T01:16:01.698816Z","epoch_age_seconds":74452,"freshness":"FRESH","line1":"1 47828U 21018AT  26145.05279744  .00000590  00000+0  30774-4 0  9995","line2":"2 47828  53.1585 260.1315 0001404 103.4850 256.6308 15.31706797288257","mean_motion":15.31706797,"eccentricity":0.0001404,"inclination_deg":53.1585,"raan_deg":260.1315,"arg_perigee_deg":103.485,"mean_anomaly_deg":256.6308,"bstar":3.0774e-5,"rev_number":28825,"period_min":94.012770774432,"perigee_km":469.75815431183,"apogee_km":471.68131328269,"semimajor_km":6848.8567337973,"source":"CELESTRAK","updated_at":"2026-05-25T13:38:16.605255Z"}}}